Location: Unspecified
(0.0000°N, 0.0000°E)
Time: 20:02:08
(UTC+00:00)

Vela 3B - Visible Passes

Search period start: 05 December 2021 00:00
Search period end: 15 December 2021 00:00
Orbit: 57524 x 166047 km, 36.7° (Epoch: 20 November)

Date Brightness Start Highest point End Pass type
(mag) Time Alt. Az. Time Alt. Az. Time Alt. Az.
05 Dec ? 00:46:14 10° ENE 07:12:08 66° N 12:56:31 10° WNW visible
06 Dec ? 03:59:01 10° E 09:33:43 86° S 15:09:33 10° W visible
07 Dec ? 05:57:18 10° ESE 11:29:49 65° S 17:16:25 10° WSW visible
08 Dec ? 10:44:30 10° SE 19:41:48 66° SSW 04:20:02 10° WNW daylight
10 Dec ? 02:00:03 10° ENE 07:51:36 77° N 13:29:42 10° W visible
11 Dec ? 04:15:13 10° E 09:47:38 79° S 15:24:26 10° WSW visible
12 Dec ? 06:28:36 10° ESE 12:06:24 58° S 18:08:19 10° SW visible
13 Dec ? 15:22:29 10° E 02:33:41 50° N 10:19:29 10° WNW daylight
